User: anonymous   Login
Location: Ash Swamp
(41.5170°N, 74.6157°W)
Time: 07:45:21
(UTC+00:00)
Language:

Cosmos 44 - Orbit

View from above orbital plane
View from above orbital plane
View from above satellite
View from above satellite

Ground track
Ground track

The orbit data is extracted from the following two-line orbital elements,

1   876U 64053A   20271.67406621 -.00000150 +00000-0 -15847-5 0  9991
2   876 065.0625 004.8359 0139488 354.0280 005.9150 14.63765571982825
Epoch (UTC): 27 September 2020 16:10:39
Eccentricity: 0.0139488
inclination: 65.0625°
perigee height: 582 km
apogee height: 779 km
right ascension of ascending node: 4.8359°
argument of perigee: 354.0280°
revolutions per day: 14.63765571
mean anomaly at epoch: 5.9150°
orbit number at epoch: 98282

The dashed part of the orbit path shows where the satellite is in the earth's shadow,  

DLR